Flag for China Weather past 2 weeks in Hohhot, Inner Mongolia, China

Now
7 °F

Sunny.


Feels Like: 7 °F
Forecast: 3 / 24 °F
Wind: 1 mph from South

Location: Hohhot Airport

Current Time: Dec 21, 2014 at 10:42:03 AM

Latest Report: Dec 21, 2014 at 10:00 AM


Visibility: 10 mi

Pressure: 30.33 "Hg

Humidity: 66%

Dew point: -2 °F

Location of HohhotLocation

Historic Weather in Hohhot — Graph

°F

Hohhot temperature yesterday

Maximum temperature yesterday: 18 °F (at 2:00 PM)
Minimum temperature yesterday: -4 °F (at 5:00 AM)
Average temperature yesterday: 7 °F

Past Weeks' High & Low Weather Summary

 TemperatureHumidityPressure
High32 °F (Dec 8, 3:00 PM)93% (Dec 9, 2:00 PM)30.48 "Hg (Dec 9, 2:00 PM)
Low-4 °F (Dec 13, 6:00 AM)24% (Dec 18, 4:00 PM)30.12 "Hg (Dec 6, 1:00 PM)
Average13 °F56%30.30 "Hg
* Reported Dec 6 9:00 AM — Dec 21 9:00 AM, Hohhot, Weather by CustomWeather, © 2014

Note: Actual official high and low records may vary slightly from our data, if they occured in-between our weather recording intervals... More about our weather records

Advertising

Hohhot weather history for previous 24 hours

 ConditionsComfort  
Time TempWeatherWind HumidityBarometerVisibility
9:00 AM
Dec 21
3 °FPassing clouds.1 mph72%30.33 "HgN/A
8:00 AM1 °FScattered clouds.3 mph71%30.33 "HgN/A
7:00 AM1 °FPassing clouds.1 mph71%30.33 "HgN/A
6:00 AM-2 °FClear.3 mph71%30.33 "Hg10 mi
5:00 AM0 °FPassing clouds.3 mph65%30.36 "HgN/A
4:00 AM5 °FPassing clouds.8 mph55%30.36 "HgN/A
3:00 AM9 °FClear.10 mph51%30.39 "Hg10 mi
2:00 AM7 °FPassing clouds.6 mph51%30.42 "HgN/A
1:00 AM3 °FClear.1 mph55%30.42 "Hg10 mi
12:00 AM5 °FClear.1 mph55%30.42 "Hg10 mi
11:00 PM
Dec 20
5 °FPassing clouds.3 mph51%30.45 "HgN/A
10:00 PM9 °FPassing clouds.8 mph47%30.45 "HgN/A
9:00 PM9 °FPassing clouds.10 mph51%30.42 "HgN/A
8:00 PM10 °FClear.10 mph47%30.42 "Hg10 mi
7:00 PM12 °FPassing clouds.8 mph48%30.39 "HgN/A
6:00 PM14 °FPassing clouds.13 mph48%30.36 "HgN/A
5:00 PM16 °FScattered clouds.15 mph45%30.33 "HgN/A
4:00 PM18 °FScattered clouds.10 mph49%30.30 "HgN/A
3:00 PM18 °FScattered clouds.8 mph45%30.27 "HgN/A
2:00 PM18 °FPassing clouds.6 mph45%30.27 "HgN/A
1:00 PM16 °FPassing clouds.6 mph48%30.27 "HgN/A
12:00 PM14 °FSunny.6 mph52%30.30 "Hg10 mi
11:00 AM10 °FSunny.3 mph61%30.33 "Hg10 mi
10:00 AM7 °FSunny.1 mph66%30.33 "Hg10 mi
Weather by CustomWeather, © 2014

See weather overviewHow to use our weather pages